Time,TemperatureF,DewpointF,PressureIn,WindDirection,WindDirectionDegrees,WindSpeedMPH,WindSpeedGustMPH,Humidity,HourlyPrecipIn,Conditions,Clouds,dailyrainin,SoftwareType,DateUTC
2013-03-14 06:50:00,48.0,47.7,29.84,NE,45,0.0,-999.0,99,-99.99,,,0.00,Acu-Link.com,2013-03-14 13:50:00,
2013-03-14 07:06:00,47.8,47.5,29.85,WNW,292,0.0,-999.0,99,-99.99,,,0.00,Acu-Link.com,2013-03-14 14:06:00,
2013-03-14 07:21:00,48.2,47.9,29.86,ENE,67,1.7,-999.0,99,-99.99,,,0.00,Acu-Link.com,2013-03-14 14:21:00,
2013-03-14 07:36:00,48.2,47.9,29.86,East,90,0.0,-999.0,99,-99.99,,,0.00,Acu-Link.com,2013-03-14 14:36:00,
2013-03-14 08:07:00,48.7,48.4,29.86,SSE,157,0.0,-999.0,99,-99.99,,,0.00,Acu-Link.com,2013-03-14 15:07:00,
2013-03-14 08:22:00,49.6,49.3,29.87,North,0,0.0,-999.0,99,-99.99,,,0.00,Acu-Link.com,2013-03-14 15:22:00,
2013-03-14 08:37:00,50.4,50.1,29.89,South,180,0.0,-999.0,99,-99.99,,,0.00,Acu-Link.com,2013-03-14 15:37:00,
2013-03-14 08:52:00,51.8,51.3,29.89,WSW,247,0.0,-999.0,98,-99.99,,,0.00,Acu-Link.com,2013-03-14 15:52:00,
2013-03-14 09:08:00,53.1,51.7,29.90,SSW,202,0.0,-999.0,95,-99.99,,,0.00,Acu-Link.com,2013-03-14 16:08:00,
2013-03-14 09:23:00,54.7,52.1,29.90,South,180,0.0,-999.0,91,-99.99,,,0.00,Acu-Link.com,2013-03-14 16:23:00,
2013-03-14 09:38:00,56.5,53.6,29.90,NW,315,0.0,-999.0,90,-99.99,,,0.00,Acu-Link.com,2013-03-14 16:38:00,
2013-03-14 09:53:00,58.5,53.0,29.90,East,90,0.0,-999.0,82,-99.99,,,0.00,Acu-Link.com,2013-03-14 16:53:00,
2013-03-14 10:09:00,59.4,52.9,29.90,NW,315,0.0,-999.0,79,-99.99,,,0.00,Acu-Link.com,2013-03-14 17:09:00,
2013-03-14 10:24:00,60.8,53.2,29.90,NE,45,0.0,-999.0,76,-99.99,,,0.00,Acu-Link.com,2013-03-14 17:24:00,
2013-03-14 10:39:00,62.4,53.6,29.90,NNW,337,0.0,-999.0,73,-99.99,,,0.00,Acu-Link.com,2013-03-14 17:39:00,
2013-03-14 10:54:00,60.4,53.5,29.90,WNW,292,0.0,-999.0,78,-99.99,,,0.00,Acu-Link.com,2013-03-14 17:54:00,
2013-03-14 11:09:00,61.3,54.0,29.91,NE,45,1.7,-999.0,77,-99.99,,,0.00,Acu-Link.com,2013-03-14 18:09:00,
2013-03-14 11:25:00,61.7,54.1,29.91,SSW,202,0.0,-999.0,76,-99.99,,,0.00,Acu-Link.com,2013-03-14 18:25:00,
2013-03-14 11:40:00,61.3,53.7,29.91,East,90,1.1,-999.0,76,-99.99,,,0.00,Acu-Link.com,2013-03-14 18:40:00,
2013-03-14 11:55:00,63.5,54.7,29.92,North,0,2.7,-999.0,73,-99.99,,,0.00,Acu-Link.com,2013-03-14 18:55:00,
2013-03-14 12:10:00,63.3,54.1,29.91,NE,45,1.7,-999.0,72,-99.99,,,0.00,Acu-Link.com,2013-03-14 19:10:00,
2013-03-14 12:25:00,63.1,53.9,29.91,NNW,337,2.2,-999.0,72,-99.99,,,0.00,Acu-Link.com,2013-03-14 19:25:00,
2013-03-14 12:41:00,63.1,53.9,29.90,East,90,1.7,-999.0,72,-99.99,,,0.00,Acu-Link.com,2013-03-14 19:41:00,
2013-03-14 13:11:00,64.6,54.2,29.90,NE,45,2.2,-999.0,69,-99.99,,,0.00,Acu-Link.com,2013-03-14 20:11:00,
2013-03-14 13:26:00,66.9,54.7,29.90,NW,315,1.7,-999.0,65,-99.99,,,0.00,Acu-Link.com,2013-03-14 20:26:00,
2013-03-14 13:42:00,65.7,54.0,29.89,ENE,67,3.2,-999.0,66,-99.99,,,0.00,Acu-Link.com,2013-03-14 20:42:00,
2013-03-14 13:57:00,65.7,54.0,29.88,NNE,22,2.2,-999.0,66,-99.99,,,0.00,Acu-Link.com,2013-03-14 20:57:00,
2013-03-14 14:12:00,65.3,53.6,29.89,East,90,2.2,-999.0,66,-99.99,,,0.00,Acu-Link.com,2013-03-14 21:12:00,
2013-03-14 14:27:00,68.0,54.0,29.88,ENE,67,4.2,-999.0,61,-99.99,,,0.00,Acu-Link.com,2013-03-14 21:27:00,
2013-03-14 14:42:00,68.9,47.8,29.89,West,270,4.2,-999.0,47,-99.99,,,0.00,Acu-Link.com,2013-03-14 21:42:00,
2013-03-14 14:58:00,70.3,39.0,29.88,West,270,5.8,-999.0,32,-99.99,,,0.00,Acu-Link.com,2013-03-14 21:58:00,
2013-03-14 15:13:00,71.2,37.3,29.88,SW,225,8.9,-999.0,29,-99.99,,,0.00,Acu-Link.com,2013-03-14 22:13:00,
2013-03-14 15:28:00,69.4,36.6,29.87,North,0,6.8,-999.0,30,-99.99,,,0.00,Acu-Link.com,2013-03-14 22:28:00,
2013-03-14 15:43:00,68.7,36.8,29.87,WNW,292,5.8,-999.0,31,-99.99,,,0.00,Acu-Link.com,2013-03-14 22:43:00,
2013-03-14 15:58:00,70.5,39.2,29.86,West,270,8.9,-999.0,32,-99.99,,,0.00,Acu-Link.com,2013-03-14 22:58:00,
2013-03-14 16:14:00,69.3,39.0,29.87,WNW,292,3.7,-999.0,33,-99.99,,,0.00,Acu-Link.com,2013-03-14 23:14:00,
2013-03-14 16:29:00,66.9,39.1,29.87,WSW,247,6.3,-999.0,36,-99.99,,,0.00,Acu-Link.com,2013-03-14 23:29:00,
2013-03-14 16:44:00,66.2,40.5,29.87,WSW,247,4.2,-999.0,39,-99.99,,,0.00,Acu-Link.com,2013-03-14 23:44:00,
2013-03-14 16:59:00,65.1,40.2,29.87,West,270,7.3,-999.0,40,-99.99,,,0.00,Acu-Link.com,2013-03-14 23:59:00,
2013-03-14 17:14:00,63.9,41.0,29.87,South,180,4.2,-999.0,43,-99.99,,,0.00,Acu-Link.com,2013-03-15 00:14:00,
2013-03-14 17:30:00,63.0,41.3,29.86,NW,315,5.3,-999.0,45,-99.99,,,0.00,Acu-Link.com,2013-03-15 00:30:00,
2013-03-14 17:45:00,63.0,40.7,29.85,SSW,202,3.2,-999.0,44,-99.99,,,0.00,Acu-Link.com,2013-03-15 00:45:00,
2013-03-14 18:00:00,63.5,40.0,29.85,WSW,247,5.8,-999.0,42,-99.99,,,0.00,Acu-Link.com,2013-03-15 01:00:00,
2013-03-14 18:15:00,64.4,39.6,29.85,WSW,247,3.2,-999.0,40,-99.99,,,0.00,Acu-Link.com,2013-03-15 01:15:00,
2013-03-14 18:30:00,63.5,40.6,29.83,WNW,292,4.7,-999.0,43,-99.99,,,0.00,Acu-Link.com,2013-03-15 01:30:00,
2013-03-14 18:46:00,63.1,40.8,29.84,West,270,2.7,-999.0,44,-99.99,,,0.00,Acu-Link.com,2013-03-15 01:46:00,
2013-03-14 19:01:00,62.6,41.0,29.83,WSW,247,3.7,-999.0,45,-99.99,,,0.00,Acu-Link.com,2013-03-15 02:01:00,
2013-03-14 19:16:00,62.6,40.4,29.84,SW,225,4.7,-999.0,44,-99.99,,,0.00,Acu-Link.com,2013-03-15 02:16:00,
2013-03-14 19:31:00,62.2,40.0,29.85,WSW,247,6.8,-999.0,44,-99.99,,,0.00,Acu-Link.com,2013-03-15 02:31:00,
2013-03-14 19:47:00,62.2,40.0,29.85,WNW,292,3.7,-999.0,44,-99.99,,,0.00,Acu-Link.com,2013-03-15 02:47:00,
2013-03-14 20:02:00,60.4,41.2,29.84,NE,45,1.7,-999.0,49,-99.99,,,0.00,Acu-Link.com,2013-03-15 03:02:00,
2013-03-14 20:25:00,59.4,41.3,29.86,SSE,157,1.1,-999.0,51,-99.99,,,0.00,Acu-Link.com,2013-03-15 03:25:00,
2013-03-14 20:41:00,57.6,41.6,29.86,SW,225,1.7,-999.0,55,-99.99,,,0.00,Acu-Link.com,2013-03-15 03:41:00,
2013-03-14 20:58:00,57.6,41.1,29.86,NE,45,1.1,-999.0,54,-99.99,,,0.00,Acu-Link.com,2013-03-15 03:58:00,
2013-03-14 21:41:00,56.3,40.8,29.87,NNE,22,2.2,-999.0,56,-99.99,,,0.00,Acu-Link.com,2013-03-15 04:41:00,
2013-03-14 21:57:00,54.7,41.1,29.87,SW,225,2.2,-999.0,60,-99.99,,,0.00,Acu-Link.com,2013-03-15 04:57:00,
2013-03-14 22:12:00,53.8,41.1,29.87,SW,225,2.7,-999.0,62,-99.99,,,0.00,Acu-Link.com,2013-03-15 05:12:00,
2013-03-14 22:55:00,53.8,40.7,29.87,NNW,337,2.7,-999.0,61,-99.99,,,0.00,Acu-Link.com,2013-03-15 05:55:00,
2013-03-14 23:10:00,54.0,40.0,29.87,SSW,202,0.0,-999.0,59,-99.99,,,0.00,Acu-Link.com,2013-03-15 06:10:00,
2013-03-14 23:25:00,52.9,39.8,29.88,SSW,202,2.7,-999.0,61,-99.99,,,0.00,Acu-Link.com,2013-03-15 06:25:00,
2013-03-14 23:44:00,53.2,38.8,29.87,NNE,22,0.0,-999.0,58,-99.99,,,0.00,Acu-Link.com,2013-03-15 06:44:00,